Skrydstrup, Denmark

2:06 PM CEST on September 22, 2017 (GMT +0200)
Vojens-Skrydstrup Air Base

Weather History for EKSP - January, 2013

Change the Weather History Date:

Friday, January 25, 2013

  Actual Average Record
Temperature  
Mean Temperature 17 °F -  
Max Temperature 28 °F 36 °F 48 °F (1999)
Min Temperature 6 °F 27 °F 6 °F (2013)
Degree Days  
Heating Degree Days 48    
Moisture  
Dew Point 15 °F    
Average Humidity 89    
Maximum Humidity 100    
Minimum Humidity 69    
Precipitation  
Precipitation 0.00 in - - ()
Sea Level Pressure  
Sea Level Pressure 30.12 in    
Wind  
Wind Speed 3 mph ()    
Max Wind Speed 12 mph    
Max Gust Speed -    
Visibility 3.0 miles    
Events Fog    
Averages and records for this station are not official NWS values.
T = Trace of Precipitation, MM = Missing Value Source: Averaged Metar Reports

Daily Weather History Graph

Daily Weather History Graph

Search for Another Location

Airport or City:

Trip Planner

Search our weather history database for the weather conditions in past years. The results will help you decide how hot, cold, wet, or windy it might be!

Date:

Astronomy

Jan. 25, 2013 Rise Set
Actual Time 8:26 AM CET 4:44 PM CET
Civil Twilight 7:44 AM CET 5:26 PM CET
Nautical Twilight 7:00 AM CET 6:11 PM CET
Astronomical Twilight 6:17 AM CET 6:54 PM CET
Moon 3:24 PM CET (1/25) 6:58 AM CET (1/25)
Length of Visible Light 9h 41m
Length of Day
8h 18m
Waxing Gibbous, 97% of the Moon is Illuminated
Jan 25
Waxing Gibbous
Jan 27
Full
Feb 3
Last Quarter
Feb 10
New
Feb 17
First Quarter

Hourly Weather History & Observations

Time (CET) Temp. Windchill Dew Point Humidity Pressure Visibility Wind Dir Wind Speed Gust Speed Precip Events Conditions
12:20 AM 8.6 °F - 6.8 °F 92% 30.15 in 4.3 mi NNE 2.3 mph - N/A   Clear
12:50 AM 6.8 °F - 6.8 °F 100% 30.15 in 4.3 mi NE 1.2 mph - N/A   Clear
1:20 AM 8.6 °F - 6.8 °F 92% 30.15 in 2.8 mi ESE 1.2 mph - N/A   Clear
1:50 AM 6.8 °F - 6.8 °F 100% 30.15 in 1.9 mi Calm Calm - N/A Fog Patches of Fog
2:20 AM 6.8 °F - 6.8 °F 100% 30.15 in 0.0 mi Calm Calm - N/A Fog Light Freezing Fog
2:50 AM 6.8 °F - 5.0 °F 92% 30.18 in 0.0 mi NE 1.2 mph - N/A Fog Light Freezing Fog
3:20 AM 6.8 °F - 5.0 °F 92% 30.15 in 0.1 mi NNE 1.2 mph - N/A Fog Light Freezing Fog
3:50 AM 6.8 °F - 5.0 °F 92% 30.15 in 0.1 mi Calm Calm - N/A Fog Light Freezing Fog
4:20 AM 6.8 °F - 5.0 °F 92% 30.15 in 0.0 mi Calm Calm - N/A Fog Light Freezing Fog
4:50 AM 6.8 °F - 5.0 °F 92% 30.15 in 0.1 mi Calm Calm - N/A Fog Light Freezing Fog
5:20 AM 6.8 °F - 6.8 °F 100% 30.15 in 0.1 mi Calm Calm - N/A Fog Light Freezing Fog
5:50 AM 8.6 °F - 6.8 °F 92% 30.15 in 0.0 mi Calm Calm - N/A Fog Light Freezing Fog
6:20 AM 10.4 °F - 8.6 °F 92% 30.15 in 0.0 mi Calm Calm - N/A Fog Light Freezing Fog
6:50 AM 10.4 °F - 10.4 °F 100% 30.15 in 0.0 mi Calm Calm - N/A Fog Light Freezing Fog
7:20 AM 10.4 °F - 10.4 °F 100% 30.18 in 0.0 mi Calm Calm - N/A Fog Light Freezing Fog
7:50 AM 12.2 °F - 10.4 °F 92% 30.18 in 0.0 mi Calm Calm - N/A Fog Light Freezing Fog
8:20 AM 12.2 °F - 10.4 °F 92% 30.18 in 0.1 mi Calm Calm - N/A Fog Light Freezing Fog
8:50 AM 12.2 °F - 12.2 °F 100% 30.18 in 0.2 mi Calm Calm - N/A Fog Light Freezing Fog
9:21 AM 15.8 °F - 14.0 °F 93% 30.18 in 0.6 mi Calm Calm - N/A Fog Light Freezing Fog
9:50 AM 17.6 °F - 15.8 °F 93% 30.18 in 1.2 mi ENE 1.2 mph - N/A   Mostly Cloudy
10:20 AM 19.4 °F - 19.4 °F 100% 30.18 in 1.4 mi Calm Calm - N/A   Mostly Cloudy
10:50 AM 19.4 °F - 19.4 °F 100% 30.15 in 1.6 mi Calm Calm - N/A   Mostly Cloudy
11:20 AM 21.2 °F - 21.2 °F 100% 30.18 in 1.6 mi Calm Calm - N/A   Mostly Cloudy
11:50 AM 23.0 °F - 23.0 °F 100% 30.15 in 1.6 mi South 1.2 mph - N/A   Mostly Cloudy
12:20 PM 24.8 °F 20.5 °F 24.8 °F 100% 30.15 in 1.9 mi SSW 3.5 mph - N/A   Mostly Cloudy
12:50 PM 26.6 °F 22.6 °F 26.6 °F 100% 30.15 in 3.7 mi SSW 3.5 mph - N/A   Mostly Cloudy
1:20 PM 28.4 °F 22.2 °F 26.6 °F 93% 30.15 in 3.7 mi SSW 5.8 mph - N/A   Mostly Cloudy
1:50 PM 28.4 °F 22.2 °F 26.6 °F 93% 30.12 in 3.7 mi SSW 5.8 mph - N/A   Mostly Cloudy
2:20 PM 28.4 °F 22.2 °F 24.8 °F 86% 30.12 in 6.2 mi SSW 5.8 mph - N/A   Mostly Cloudy
2:50 PM 28.4 °F 21.2 °F 21.2 °F 74% 30.12 in 6.2 mi SSW 6.9 mph - N/A   Mostly Cloudy
3:20 PM 28.4 °F 20.4 °F 21.2 °F 74% 30.12 in 6.2 mi SSW 8.1 mph - N/A   Mostly Cloudy
3:50 PM 28.4 °F 20.4 °F 21.2 °F 74% 30.12 in 6.2 mi SSW 8.1 mph - N/A   Mostly Cloudy
4:20 PM 28.4 °F 20.4 °F 19.4 °F 69% 30.09 in 6.2 mi SSW 8.1 mph - N/A   Mostly Cloudy
4:50 PM 26.6 °F 17.5 °F 21.2 °F 80% 30.09 in 6.2 mi South 9.2 mph - N/A   Mostly Cloudy
5:20 PM 24.8 °F 19.1 °F 17.6 °F 74% 30.09 in 6.2 mi SSE 4.6 mph - N/A   Partly Cloudy
5:50 PM 23.0 °F 17.0 °F 17.6 °F 80% 30.09 in 6.2 mi SE 4.6 mph - N/A   Partly Cloudy
6:20 PM 21.2 °F 13.6 °F 17.6 °F 86% 30.06 in 6.2 mi SE 5.8 mph - N/A   Partly Cloudy
6:50 PM 19.4 °F 12.8 °F 15.8 °F 86% 30.06 in 6.2 mi SE 4.6 mph - N/A   Partly Cloudy
7:20 PM 19.4 °F 10.4 °F 15.8 °F 86% 30.06 in 6.2 mi SE 6.9 mph - N/A   Mostly Cloudy
7:50 PM 19.4 °F 10.4 °F 17.6 °F 93% 30.04 in 6.2 mi SE 6.9 mph - N/A   Mostly Cloudy
8:20 PM 23.0 °F 13.9 °F 17.6 °F 80% 30.04 in 6.2 mi SSE 8.1 mph - N/A   Mostly Cloudy
8:50 PM 23.0 °F 12.4 °F 17.6 °F 80% 30.04 in 6.2 mi SSE 10.4 mph - N/A   Mostly Cloudy
9:20 PM 23.0 °F 13.1 °F 17.6 °F 80% 30.04 in 6.2 mi SSE 9.2 mph - N/A   Mostly Cloudy
9:50 PM 23.0 °F 12.4 °F 17.6 °F 80% 30.01 in - SSE 10.4 mph - N/A   Clear
10:20 PM 23.0 °F 12.4 °F 17.6 °F 80% 30.01 in - SSE 10.4 mph - N/A   Clear
10:50 PM 23.0 °F 11.7 °F 17.6 °F 80% 29.98 in - SSE 11.5 mph - N/A   Clear
11:20 PM 23.0 °F 12.4 °F 17.6 °F 80% 29.98 in - SSE 10.4 mph - N/A   Clear
11:50 PM 23.0 °F 11.7 °F 17.6 °F 80% 29.98 in - SSE 11.5 mph - N/A   Clear